Tracking 23610 objects as of 19-Sep-2021
HD Live streaming from Space Station
objects crossing your sky now

STARLINK-2269

Track STARLINK-2269 now!
10-day predictions
STARLINK-2269 is classified as:


NORAD ID: 48447
Int'l Code: 2021-040V
Perigee: 553.6 km
Apogee: 555.0 km
Inclination: 53.1 °
Period: 95.6 minutes
Semi major axis: 6925 km
RCS: Unknown
Launch date: May 9, 2021
Source: United States (US)
Launch site: AIR FORCE EASTERN TEST RANGE (AFETR)
aabbcc
Your satellite tracking list
Your tracking list is empty




NASA's NSSDC Master Catalog

Two Line Element Set (TLE):
1 48447U 21040V   21262.25001157 -.00023784  00000-0 -15827-2 0  9999
2 48447  53.0524 309.9090 0001015  94.0186 231.7200 15.06410337 21135
Source of the keplerian elements: AFSPC